Back to catalog

CUBY-5

AliveScienceSSO
NORAD 69907·PAYLOAD·🇪🇸 Spain

Launched Jul 7, 2026 from Vandenberg Space Force Base

Loading…

Next Passes (next 24 hours)

TLE

FreshSource: Space-Track

Epoch: Sep 14, 2026, 12:49 UTC

1 69907U 26156AQ  26257.53427088  .00001562  00000-0  16348-3 0  9999
2 69907  97.7419 156.7149 0002082 254.3347 105.7641 14.91017796 10317

Track CUBY-5 in real time with AllMySat

Download on the App Store